Location: Unspecified
(0.0000°N, 0.0000°E)
Time: 10:09:58
(UTC+00:00)

Transit 2A - All Passes

Search period start: 11 February 2026 00:00
Search period end: 21 February 2026 00:00
Orbit: 589 x 955 km, 66.7° (Epoch: 10 February)

Date Brightness Start Highest point End Pass type
(mag) Time Alt. Az. Time Alt. Az. Time Alt. Az.
11 Feb - 01:17:35 10° NW 01:22:18 36° WSW 01:26:37 10° S night (unlit)
11 Feb - 12:06:27 10° S 12:11:22 39° ESE 12:16:44 10° NE daylight
11 Feb - 13:51:09 10° WSW 13:54:19 15° WNW 13:57:37 10° NNW daylight
12 Feb - 00:40:54 10° NNW 00:46:04 69° WSW 00:50:44 10° SSE night (unlit)
12 Feb - 11:31:04 10° SSE 11:35:09 22° ESE 11:39:30 10° ENE daylight
12 Feb - 13:13:22 10° SW 13:17:54 27° WNW 13:22:47 10° NNW daylight
13 Feb - 00:04:36 10° N 00:09:47 63° ENE 00:14:26 10° SSE night (unlit)
13 Feb - 10:56:47 10° SE 10:58:54 12° ESE 11:01:05 10° E daylight
13 Feb - 12:36:23 10° SW 12:41:32 46° WNW 12:47:10 10° N daylight
13 Feb - 23:28:46 10° N 23:33:26 33° ENE 23:37:43 10° SE night (unlit)
14 Feb - 01:14:01 10° W 01:16:02 12° WSW 01:18:00 10° SW night (unlit)
14 Feb - 11:59:50 10° SSW 12:05:12 81° WNW 12:11:08 10° NNE daylight
14 Feb - 22:53:30 10° NNE 22:57:02 18° ENE 23:00:22 10° ESE night (unlit)
15 Feb - 00:35:49 10° NW 00:39:49 23° WSW 00:43:32 10° SSW night (unlit)
15 Feb - 11:23:40 10° S 11:28:55 58° ESE 11:34:42 10° NNE daylight
15 Feb - 13:11:45 10° WNW 13:11:59 10° WNW 13:12:15 10° WNW daylight
15 Feb - 23:58:44 10° NW 00:03:35 43° WSW 00:08:01 10° S night (unlit)
16 Feb - 10:47:53 10° S 10:52:40 33° ESE 10:57:51 10° NE daylight
16 Feb - 12:31:46 10° WSW 12:35:34 19° WNW 12:39:33 10° NNW daylight
16 Feb - 23:22:10 10° NNW 23:27:20 84° WSW 23:31:59 10° SSE night (unlit)
17 Feb - 10:12:42 10° SSE 10:16:26 19° ESE 10:20:23 10° ENE daylight
17 Feb - 11:54:19 10° SW 11:59:10 32° WNW 12:04:23 10° N daylight
17 Feb - 22:46:01 10° N 22:51:01 51° ENE 22:55:33 10° SE night (unlit)
18 Feb - 11:17:28 10° SSW 11:22:48 55° WNW 11:28:38 10° N daylight
18 Feb - 22:10:19 10° N 22:14:39 27° ENE 22:18:39 10° SE night (unlit)
18 Feb - 23:54:31 10° WNW 23:57:18 15° WSW 23:59:58 10° SW night (unlit)
19 Feb - 10:41:03 10° SSW 10:46:29 85° ESE 10:52:27 10° NNE daylight
19 Feb - 21:35:24 10° NNE 21:38:14 15° ENE 21:40:57 10° ESE night (unlit)
19 Feb - 23:16:48 10° NW 23:21:04 28° WSW 23:25:02 10° SSW night (unlit)
20 Feb - 10:05:00 10° S 10:10:12 49° ESE 10:15:54 10° NE daylight
20 Feb - 11:50:50 10° W 11:53:13 13° WNW 11:55:40 10° NW daylight
20 Feb - 22:39:54 10° NNW 22:44:50 53° WSW 22:49:19 10° S night (unlit)
